User: anonymous   Login
Location: Unspecified
(0.0000°N, 0.0000°E)
Time: 09:04:31
(UTC+01:00)
Language:

Iridium 15 - Orbit

View from above orbital plane
View from above orbital plane
View from above satellite
View from above satellite

Ground track
Ground track

The orbit data is extracted from the following two-line orbital elements,

1 24869U 97034A   17081.41964805 -.00000041 +00000-0 -21551-4 0  9991
2 24869 086.3941 058.3682 0001944 083.7608 276.3809 14.34216415031475
Epoch (UTC): 22 March 2017 10:04:17
Eccentricity: 0.0001944
inclination: 86.3941°
perigee height: 776 km
apogee height: 779 km
right ascension of ascending node: 58.3682°
argument of perigee: 83.7608°
revolutions per day: 14.34216415
mean anomaly at epoch: 276.3809°
orbit number at epoch: 3147

The dashed part of the orbit path shows where the satellite is in the earth's shadow,  

DLR